Location: Borojevi?i
(45.0486°N, 16.2297°E)
Time: 06:30:04
(UTC+00:00)

Cosmos 2123 Rocket - Pass Details

Date: 08 August 2020
Orbit: 962 x 991 km, 82.9° (Epoch: 23 September)

Event Time Altitude Azimuth Distance (km) Brightness Sun altitude
Rises 20:05:21 0° 350° (N) 3,666 8.0 -17.3°
Reaches altitude 10° 20:07:51 10° 350° (N) 2,718 7.2 -17.6°
Maximum altitude 20:14:05 82° 264° (W) 986 4.0 -18.4°
Enters shadow 20:18:20 22° 179° (S) 1,994 5.2 -18.9°
